Location: Zürich
(47.3769°N, 8.5417°E)
Time: 11:07:59
(UTC+02:00)

ISS - Pass Details

Date: 22 May 2021
Orbit: 417 x 422 km, 51.6° (Epoch: 13 June)

Event Time Altitude Azimuth Distance (km) Brightness Sun altitude
Rises 01:20:53 0° 294° (WNW) 2,370 0.4 -22.2°
Reaches altitude 10° 01:23:00 10° 291° (WNW) 1,504 -0.7 -22.2°
Enters shadow 01:24:15 21° 286° (WNW) 1,011 -1.7 -22.2°
